User: anonymous   Login
Location: ???????????
(54.5822°N, 39.1075°E)
Time: 01:20:31
(UTC+00:00)
Language:

Cosmos 1238 Rocket - Orbit

View from above orbital plane
View from above orbital plane
View from above satellite
View from above satellite

Ground track
Ground track

The orbit data is extracted from the following two-line orbital elements,

1 12139U 81003B   25198.38740366  .00010203  00000-0  30239-3 0  9996
2 12139  82.9338 145.9742 0297819 271.0008  85.7113 15.00836116279258
Epoch (UTC): 17 July 2025 09:17:51
Eccentricity: 0.0297819
inclination: 82.9338°
perigee height: 357 km
apogee height: 771 km
right ascension of ascending node: 145.9742°
argument of perigee: 271.0008°
revolutions per day: 15.00836116
mean anomaly at epoch: 85.7113°
orbit number at epoch: 27925

The dashed part of the orbit path shows where the satellite is in the earth's shadow,  

DLR